Location: Unspecified
(0.0000°N, 0.0000°E)
Time: 06:15:03
(UTC+02:00)

Cosmos 2219 - Visible Passes

Search period start: 01 May 2016 00:00
Search period end: 11 May 2016 00:00
Orbit: 833 x 861 km, 71.1° (Epoch: 29 April)

Date Brightness Start Highest point End Pass type
(mag) Time Alt. Az. Time Alt. Az. Time Alt. Az.
01 May 3.0 21:37:11 10° NNW 21:42:54 81° ENE 21:43:47 64° SE visible
02 May 3.1 21:23:46 10° NNW 21:29:28 79° ENE 21:31:51 37° SSE visible
03 May 3.1 21:10:20 10° N 21:16:02 76° ENE 21:19:58 21° SSE visible
04 May 3.1 20:56:55 10° N 21:02:36 74° ENE 21:08:09 11° SSE visible
05 May 3.2 20:43:30 10° N 20:49:11 72° ENE 20:54:50 10° SSE visible
06 May 3.2 20:30:05 10° N 20:35:45 69° ENE 20:41:24 10° SSE visible
07 May 3.2 20:16:40 10° N 20:22:19 67° ENE 20:27:57 10° SSE visible
08 May 5.9 07:20:03 10° SE 07:23:36 17° ESE 07:27:10 10° ENE visible
09 May 5.9 07:06:44 10° SE 07:10:11 16° ESE 07:13:37 10° ENE visible
10 May 5.9 06:53:24 10° SE 06:56:44 16° ESE 07:00:04 10° ENE visible
